Weather History for KPVG - January, 2014

Change the Weather History Date:

Saturday, January 11, 2014

  Actual Average (KNGU) Record (KNGU)
Temperature  
Mean Temperature 63 °F -  
Max Temperature 71 °F 48 °F 73 °F (2008)
Min Temperature 55 °F 33 °F 19 °F (2004)
Degree Days  
Heating Degree Days 2    
Growing Degree Days 13 (Base 50)    
Moisture  
Dew Point 59 °F    
Average Humidity 94    
Maximum Humidity 100    
Minimum Humidity 83    
Precipitation  
Precipitation 1.34 in - - ()
Sea Level Pressure  
Sea Level Pressure 29.82 in    
Wind  
Wind Speed 9 mph (South)    
Max Wind Speed 25 mph    
Max Gust Speed 41 mph    
Visibility 9 miles    
Events Thunderstorm    
Averages and records for this station are not official NWS values.
T = Trace of Precipitation, MM = Missing Value Source: NWS Daily Summary

Daily Weather History Graph

Daily Weather History Graph

Search for Another Location

Airport or City:

Trip Planner

Search our weather history database for the weather conditions in past years. The results will help you decide how hot, cold, wet, or windy it might be!

Date:

Astronomy

Jan. 11, 2014 Rise Set
Actual Time 7:18 AM EST 5:09 PM EST
Civil Twilight 6:50 AM EST 5:37 PM EST
Nautical Twilight 6:18 AM EST 6:09 PM EST
Astronomical Twilight 5:46 AM EST 6:40 PM EST
Moon 1:50 PM EST (1/11) 3:22 AM EST (1/11)
Length of Visible Light 10h 47m
Length of Day
9h 50m
Waxing Gibbous, 83% of the Moon is Illuminated
Jan 11
Waxing Gibbous
Jan 15
Full
Jan 24
Last Quarter
Jan 30
New
Feb 6
First Quarter

Hourly Weather History & Observations

Time (EST) Temp. Dew Point Humidity Pressure Visibility Wind Dir Wind Speed Gust Speed Precip Events Conditions
12:15 AM 55.4 °F 53.6 °F 94% 30.14 in 10.0 mi SE 5.8 mph - 0.01 in   Mostly Cloudy
12:35 AM 55.4 °F 55.4 °F 100% 30.13 in 10.0 mi ESE 3.5 mph - 0.02 in   Partly Cloudy
12:55 AM 57.2 °F 55.4 °F 94% 30.12 in 6.0 mi SE 5.8 mph - 0.03 in   Scattered Clouds
1:15 AM 57.2 °F 55.4 °F 94% 30.11 in 4.0 mi Calm Calm - 0.06 in   Overcast
1:35 AM 57.2 °F 57.2 °F 100% 30.10 in 4.0 mi ESE 5.8 mph - 0.16 in   Overcast
1:55 AM 59.0 °F 57.2 °F 94% 30.10 in 5.0 mi SE 5.8 mph - 0.26 in   Mostly Cloudy
2:15 AM 60.8 °F 59.0 °F 94% 30.10 in 3.0 mi SSE 6.9 mph - 0.24 in   Overcast
2:35 AM 60.8 °F 59.0 °F 94% 30.08 in 9.0 mi SE 11.5 mph - 0.35 in   Mostly Cloudy
2:55 AM 62.6 °F 60.8 °F 94% 30.07 in 10.0 mi SSE 11.5 mph - 0.37 in   Mostly Cloudy
3:15 AM 62.6 °F 60.8 °F 94% 30.07 in 10.0 mi SSE 6.9 mph - N/A   Overcast
3:35 AM 60.8 °F 59.0 °F 94% 30.06 in 10.0 mi SSE 6.9 mph - N/A   Overcast
3:55 AM 62.6 °F 60.8 °F 94% 30.05 in 8.0 mi SSE 6.9 mph - N/A   Overcast
4:15 AM 62.6 °F 60.8 °F 94% 30.04 in 5.0 mi South 5.8 mph - N/A   Overcast
4:35 AM 62.6 °F 60.8 °F 94% 30.03 in 10.0 mi SSE 5.8 mph - 0.01 in   Overcast
4:55 AM 62.6 °F 60.8 °F 94% 30.02 in 10.0 mi SSE 6.9 mph - 0.01 in   Overcast
5:15 AM 62.6 °F 60.8 °F 94% 30.01 in 10.0 mi SSE 6.9 mph - N/A   Overcast
5:35 AM 62.6 °F 60.8 °F 94% 29.99 in 5.0 mi SSE 6.9 mph - N/A   Overcast
5:55 AM 62.6 °F 60.8 °F 94% 29.98 in 10.0 mi SSE 5.8 mph - N/A   Overcast
6:15 AM 62.6 °F 60.8 °F 94% 29.97 in 6.0 mi SSE 6.9 mph - N/A   Overcast
6:35 AM 62.6 °F 60.8 °F 94% 29.97 in 10.0 mi SSE 9.2 mph - N/A   Overcast
6:55 AM 62.6 °F 62.6 °F 100% 29.96 in 10.0 mi South 9.2 mph - N/A   Overcast
7:15 AM 62.6 °F 62.6 °F 100% 29.95 in 10.0 mi South 12.7 mph 19.6 mph N/A   Overcast
7:35 AM 62.6 °F 62.6 °F 100% 29.94 in 10.0 mi South 10.4 mph 16.1 mph N/A   Overcast
7:55 AM 62.6 °F 60.8 °F 94% 29.94 in 9.0 mi South 12.7 mph 18.4 mph N/A   Overcast
8:15 AM 64.4 °F 62.6 °F 94% 29.93 in 9.0 mi South 9.2 mph - N/A   Overcast
8:35 AM 64.4 °F 62.6 °F 94% 29.92 in 10.0 mi South 13.8 mph 21.9 mph N/A   Overcast
8:55 AM 64.4 °F 62.6 °F 94% 29.91 in 10.0 mi South 12.7 mph 17.3 mph N/A   Overcast
9:15 AM 64.4 °F 62.6 °F 94% 29.90 in 9.0 mi South 12.7 mph 19.6 mph N/A   Overcast
9:35 AM 64.4 °F 64.4 °F 100% 29.89 in 4.0 mi South 12.7 mph 20.7 mph N/A   Overcast
9:55 AM 64.4 °F 64.4 °F 100% 29.88 in 2.0 mi South 15.0 mph 18.4 mph N/A   Overcast
10:15 AM 64.4 °F 64.4 °F 100% 29.88 in 5.0 mi SSW 15.0 mph 19.6 mph N/A   Overcast
10:35 AM 66.2 °F 64.4 °F 94% 29.87 in 9.0 mi SSW 13.8 mph 19.6 mph N/A   Overcast
10:55 AM 66.2 °F 64.4 °F 94% 29.86 in 10.0 mi SSW 12.7 mph 18.4 mph N/A   Overcast
11:15 AM 66.2 °F 64.4 °F 94% 29.84 in 10.0 mi SSW 15.0 mph 18.4 mph N/A   Overcast
11:35 AM 66.2 °F 64.4 °F 94% 29.83 in 10.0 mi SSW 12.7 mph 21.9 mph N/A   Overcast
11:55 AM 68.0 °F 64.4 °F 88% 29.81 in 10.0 mi SSW 15.0 mph 20.7 mph N/A   Overcast
12:15 PM 69.8 °F 66.2 °F 88% 29.78 in 10.0 mi SSW 13.8 mph 20.7 mph N/A   Overcast
12:35 PM 69.8 °F 66.2 °F 88% 29.75 in 10.0 mi South 17.3 mph 24.2 mph N/A   Overcast
12:55 PM 69.8 °F 66.2 °F 88% 29.72 in 10.0 mi South 13.8 mph 24.2 mph N/A   Overcast
1:15 PM 69.8 °F 66.2 °F 88% 29.70 in 10.0 mi SSW 19.6 mph 26.5 mph N/A   Overcast
1:35 PM 71.6 °F 66.2 °F 83% 29.69 in 10.0 mi SSW 18.4 mph 27.6 mph N/A   Mostly Cloudy
1:55 PM 71.6 °F 66.2 °F 83% 29.67 in 10.0 mi SSW 16.1 mph 26.5 mph N/A   Mostly Cloudy
2:15 PM 71.6 °F 66.2 °F 83% 29.65 in 10.0 mi South 15.0 mph 20.7 mph N/A   Overcast
2:35 PM 71.6 °F 66.2 °F 83% 29.64 in 10.0 mi South 13.8 mph 25.3 mph N/A   Overcast
2:55 PM 71.6 °F 66.2 °F 83% 29.63 in 10.0 mi South 16.1 mph 24.2 mph N/A   Mostly Cloudy
3:15 PM 69.8 °F 66.2 °F 88% 29.62 in 10.0 mi South 10.4 mph 21.9 mph N/A   Mostly Cloudy
3:35 PM 69.8 °F 64.4 °F 83% 29.61 in 7.0 mi South 13.8 mph 21.9 mph 0.05 in   Mostly Cloudy
3:55 PM 66.2 °F 64.4 °F 94% 29.71 in 5.0 mi West 25.3 mph 41.4 mph 0.17 in Thunderstorm Thunderstorm
4:15 PM 57.2 °F 57.2 °F 100% 29.71 in 4.0 mi West 16.1 mph 28.8 mph 0.33 in   Mostly Cloudy
4:35 PM 55.4 °F 55.4 °F 100% 29.69 in 10.0 mi West 11.5 mph 18.4 mph 0.41 in Thunderstorm Overcast
4:55 PM 55.4 °F 55.4 °F 100% 29.69 in 10.0 mi SW 5.8 mph - 0.45 in   Overcast
5:15 PM 55.4 °F 55.4 °F 100% 29.67 in 10.0 mi SW 4.6 mph - 0.03 in   Overcast
5:35 PM 55.4 °F 55.4 °F 100% 29.68 in 10.0 mi SSW 4.6 mph - 0.04 in   Overcast
5:55 PM 55.4 °F 55.4 °F 100% 29.69 in 10.0 mi South 9.2 mph - 0.04 in   Overcast
6:15 PM 55.4 °F 55.4 °F 100% 29.65 in 10.0 mi South 6.9 mph - N/A   Overcast
6:35 PM 55.4 °F 53.6 °F 94% 29.64 in 10.0 mi South 5.8 mph - N/A   Overcast
6:55 PM 55.4 °F 53.6 °F 94% 29.64 in 10.0 mi South 9.2 mph - N/A   Overcast
7:15 PM 55.4 °F 53.6 °F 94% 29.65 in 10.0 mi South 10.4 mph - N/A   Overcast
7:35 PM 55.4 °F 53.6 °F 94% 29.63 in 10.0 mi South 11.5 mph - 0.01 in   Mostly Cloudy
7:55 PM 55.4 °F 53.6 °F 94% 29.63 in 10.0 mi South 10.4 mph - 0.01 in   Overcast
8:15 PM 55.4 °F 53.6 °F 94% 29.64 in 10.0 mi South 11.5 mph 17.3 mph N/A   Overcast
8:35 PM 55.4 °F 53.6 °F 94% 29.63 in 10.0 mi South 9.2 mph - N/A   Overcast
8:55 PM 55.4 °F 53.6 °F 94% 29.63 in 10.0 mi South 10.4 mph - N/A   Mostly Cloudy
9:15 PM 55.4 °F 53.6 °F 94% 29.55 in 10.0 mi SSE 8.1 mph - N/A   Mostly Cloudy
9:35 PM 55.4 °F 53.6 °F 94% 29.59 in 10.0 mi WSW 8.1 mph - N/A   Clear
9:55 PM 55.4 °F 53.6 °F 94% 29.60 in 10.0 mi SW 8.1 mph - N/A   Partly Cloudy
10:15 PM 55.4 °F 53.6 °F 94% 29.61 in 10.0 mi SW 11.5 mph - N/A   Mostly Cloudy
10:35 PM 57.2 °F 53.6 °F 88% 29.62 in 10.0 mi WSW 9.2 mph 17.3 mph N/A   Overcast
10:55 PM 55.4 °F 53.6 °F 94% 29.63 in 10.0 mi SW 10.4 mph - N/A   Overcast
11:15 PM 57.2 °F 53.6 °F 88% 29.64 in 10.0 mi WSW 9.2 mph - N/A   Overcast
11:35 PM 55.4 °F 53.6 °F 94% 29.63 in 10.0 mi SW 11.5 mph - N/A   Scattered Clouds
11:55 PM 55.4 °F 51.8 °F 88% 29.64 in 10.0 mi WSW 8.1 mph - N/A   Partly Cloudy